Погода в Покровском

Россия / Республика Марий Эл     56°36′13″N   45°42′32″E
темп.,
°C
ветер,
м/с
пор.,
м/с
влажн.,
%
обл.,
%
осадки,
мм/ч
давл.,
гПа
погр.,
м
7 марта, вс
вс700:00−15зюз239757 0.0 101124
03:00−17зюз239742 0.0 101121
06:00−17юз2310071 0.0 101027
09:00−12ююз369684 0.1 1007260
12:00−8ю5990100 0.0 1004587
15:00−7ю61194100 0.4 1000901
18:00−6ю51194100 1.6 997808
21:00−5ю41095100 2.8 993711
8 марта, пн
пн800:00−5ю3996100 0.8 990465
03:00−5юв2597100 1.8 989221
06:00−6зсз61194100 2.2 989715
09:00−8з71376100 3.1 992867
12:00−6з51081100 0.0 995811
15:00−5з4882100 0.0 9971054
18:00−8з229599 0.1 99933
21:00−11сз229399 0.3 100122
9 марта, вт
вт900:00−13сз239786 0.0 100232
03:00−13ссз369691 0.1 1004199
06:00−16сз379778 0.0 1007170
09:00−17сз369582 0.0 1009290
12:00−13сз359196 0.0 1010512
15:00−12сз468998 0.1 1011715
18:00−15сз3795100 0.1 1012253
21:00−18сз3797100 0.1 1015186
10 марта, ср
ср1000:00−21сз369992 0.0 1016133
03:00−24ссз369885 0.1 1017129
06:00−28ссз389829 0.0 1019140
09:00−25ссз369524 0.0 1021270
12:00−20ссз359269 0.0 1022500
15:00−17сз368781 0.0 1022600
18:00−20з339444 0.0 102180
21:00−21з399345 0.0 1022239
11 марта, чт
чт1100:00−22з379872 0.0 1022166
03:00−23з389858 0.0 1023155
06:00−23з379758 0.0 1023181
09:00−19з369555 0.0 1024256
12:00−12з369253 0.0 1024388
15:00−10з478637 0.0 1023577
18:00−14зюз33910 0.0 102458
21:00−17юз33890 0.0 102451